Regional Weather Roundup
Issued by NWS Northern Indiana

Home | Current Version | Previous Version | Text Only | Print | Product List | Glossary On
Versions: 1 2 3 4 5 6 7 8 9 10 11 12 13 14 15 16 17 18 19 20 21 22 23 24 25 26 27 28 29 30 31 32 33 34 35 36 37 38 39 40 41 42 43 44 45 46 47 48 49 50
000
ASUS43 KIWX 211110
RWRIWX

KIWX WEATHER ROUNDUP
NATIONAL WEATHER SERVICE NORTHERN INDIANA
600 AM EST SUN DEC 21 2014

NOTE: "FAIR" INDICATES FEW OR NO CLOUDS BELOW 12,000 FEET WITH NO
SIGNIFICANT WEATHER AND/OR OBSTRUCTIONS TO VISIBILITY.

* THESE STATIONS ARE NOT UNDER NWS QUALITY CONTROL. THEY ALSO MAY NOT
  REPORT WEATHER SUCH AS PRECIPITATION OR FOG.

INZ001>027-211200-
NORTHERN INDIANA

CITY           SKY/WX    TMP DP  RH WIND       PRES   REMARKS
GARY*          CLOUDY    34  25  69 S6        30.24F WCI  29
VALPARAISO     CLOUDY    30  26  85 S6        30.25F WCI  24
MICHIGAN CITY* CLOUDY    32  23  69 S3        30.26S
LAPORTE*       CLOUDY    32  29  90 S3        30.25F FOG
KNOX*          CLOUDY    31  24  74 SE6       30.25F WCI  25
SOUTH BEND     CLOUDY    32  26  78 S6        30.26S WCI  26
GOSHEN         CLOUDY    30  27  88 S5        30.27S FOG     WCI  25
MONTICELLO*    CLOUDY    30  27  86 SE3       30.25F
LOGANSPORT*    CLOUDY    30  27  86 S5        30.28S FOG     WCI  25
ROCHESTER*     CLOUDY    32  30  93 S3        30.27S FOG
WARSAW*        CLOUDY    30  28  93 CALM      30.27S FOG
ANGOLA*        CLOUDY    28  27  93 CALM      30.26S
FORT WAYNE     CLOUDY    29  26  89 S3        30.29S
HUNTINGTON*    CLOUDY    29  26  88 CALM      30.28S
PERU/GRISSOM   CLOUDY    30  30 100 S6        30.27S WCI  24
MARION*        CLOUDY    28  26  91 S3        30.29S FOG

$$
INZ028>050-211200-
CENTRAL INDIANA

CITY           SKY/WX    TMP DP  RH WIND       PRES   REMARKS
LAFAYETTE      PTCLDY    26  23  88 SE5       30.26F WCI  20
KOKOMO*        CLOUDY    28  25  86 S5        30.27S WCI  23
MUNCIE*        CLOUDY    25  22  88 S3        30.29R FOG
INDIANAPOLIS   CLEAR     22  20  92 E5        30.26F FOG     WCI  16

$$
MIZ043>046-050>051-056>058-064>065-071>073-077>080-211200-
SOUTHWEST LOWER MICHIGAN

CITY           SKY/WX    TMP DP  RH WIND       PRES   REMARKS
BATTLE CREEK   CLOUDY    30  27  88 S6        30.26S FOG     WCI  24
BENTON HARBOR  CLOUDY    31  26  82 S7        30.25S WCI  24
COLDWATER*     CLOUDY    30  28  93 MISG      30.27S FOG
HILLSDALE*     CLOUDY    29  27  94 CALM      30.25S FOG
HOLLAND        CLOUDY    32  27  81 S8        30.25S WCI  25
GRAND RAPIDS   CLOUDY    30  26  85 S7        30.25S FOG     WCI  23
KALAMAZOO      CLOUDY    30  27  88 S6        30.26S FOG     WCI  24
STURGIS*       CLOUDY    28  27  93 S5        30.26S FOG     WCI  23
THREE RIVERS*  CLOUDY    30  28  92 S5        30.27S FOG     WCI  25

$$
OHZ001>008-015>018-024>025-211200-
NORTHWEST OHIO

CITY           SKY/WX    TMP DP  RH WIND       PRES   REMARKS
WAUSEON*       CLOUDY    27  25  93 CALM      30.29S FOG
DEFIANCE       CLOUDY    27  24  89 CALM      30.30S FOG
FINDLAY        FAIR      23  20  88 CALM      30.29R FOG
TOLEDO EXPRESS PTCLDY    18  16  92 CALM      30.30R FOG
TOLEDO METCALF PTCLDY    22  19  89 CALM      30.32R FOG
LIMA           FOG       24  20  84 CALM      30.29R VSB 3/4

$$
AND FOR LAKE MICHIGAN COASTAL AND OPEN LAKE BUOY OBSERVATIONS

STATION/POSITION TEMP    WIND        PRES    VSBY  WAVE
                 AIR SEA DIR/SP/G                  HT/PER
                 (F)     (DEG/KT/KT) (MB)    (MI)  (FT/S)
CALUMET HARBOR    32     180/  7/ 11 1022.3S
SAINT JOSEPH      32     140/  3/  6 1025.1R

$$
&&


USA.gov is the U.S. government's official web portal to all federal, state and local government web resources and services.